[Iaude] MPEC B51: 2017 BM3 [a=0.98,e=0.18,i=13.8,H=22.8]

mpec at si.edu mpec at si.edu
Mon Jan 23 21:43:26 EST 2017


M.P.E.C. 2017-B51                                Issued 2017 Jan. 24, 02:40 UT
 
     The Minor Planet Electronic Circulars contain information on unusual
         minor planets and routine data on comets.  They are published
    on behalf of Division F of the International Astronomical Union by the
          Minor Planet Center, Smithsonian Astrophysical Observatory,
                          Cambridge, MA 02138, U.S.A.

             Prepared using the Tamkin Foundation Computer Network

                              MPC at CFA.HARVARD.EDU
            URL http://www.minorplanetcenter.net/    ISSN 1523-6714


                                   2017 BM3
 
Observations:
     K17B03M  C2017 01 14.53387 11 10 44.410+59 57 06.41         20.1 iLEB051F51
     K17B03M  C2017 01 14.54660 11 10 41.752+59 57 20.97         20.0 iLEB051F51
     K17B03M  C2017 01 14.55936 11 10 39.055+59 57 35.33         20.1 iLEB051F51
     K17B03M* C2017 01 22.85356 10 27 35.23 +62 36 01.6          19.3 RqEB051D29
     K17B03M  C2017 01 22.86956 10 27 25.82 +62 36 15.5          19.1 RqEB051D29
     K17B03M  C2017 01 22.88557 10 27 16.44 +62 36 28.2          18.9 RqEB051D29
     K17B03M KC2017 01 23.00973 10 26 19.61 +62 38 39.4          18.4 RoEB051K88
     K17B03M KC2017 01 23.01248 10 26 17.96 +62 38 42.4          18.6 RoEB051K88
     K17B03M KC2017 01 23.01523 10 26 16.29 +62 38 45.6          18.7 RoEB051K88
     K17B03M KC2017 01 23.08646 10 25 36.60 +62 40 09.9          18.7 VUEB051958
     K17B03M KC2017 01 23.09053 10 25 30.18 +62 40 05.5          19.4 V EB051L04
     K17B03M KC2017 01 23.09672 10 25 30.42 +62 40 21.8          19.1 VUEB051958
     K17B03M KC2017 01 23.10160 10 25 23.46 +62 40 16.0          19.1 V EB051L04
     K17B03M KC2017 01 23.10699 10 25 24.09 +62 40 33.0          18.7 VUEB051958
     K17B03M KC2017 01 23.11296 10 25 16.60 +62 40 26.0          19.2 V EB051L04
     K17B03M  C2017 01 23.52295 10 21 21.13 +62 47 54.2          18.9 RoEB051926
     K17B03M  C2017 01 23.53094 10 21 16.03 +62 47 59.7          19.1 RoEB051926
     K17B03M  C2017 01 23.53907 10 21 10.86 +62 48 05.0          19.6 RoEB051926
     K17B03M KC2017 01 23.79593 10 18 51.24 +62 52 32.5          19.1 VqEB051C42
     K17B03M KC2017 01 23.79847 10 18 49.65 +62 52 37.8          19.2 VqEB051C42
     K17B03M KC2017 01 23.80100 10 18 47.95 +62 52 40.8          19.2 VqEB051C42
     K17B03M KC2017 01 23.80351 10 18 46.58 +62 52 42.8          19.2 VqEB051C42
     K17B03M  C2017 01 23.84626 10 18 10.95 +62 53 35.4          19.1 RqEB051D29
     K17B03M  C2017 01 23.84829 10 18 25.61 +62 52 41.4                qEB051246
     K17B03M  C2017 01 23.84932 10 18 25.01 +62 52 42.8                qEB051246
     K17B03M  C2017 01 23.85020 10 18 24.40 +62 52 43.0          19.2 RqEB051246
     K17B03M KC2017 01 23.85173 10 18 24.44 +62 52 48.4                tEB051104
     K17B03M  C2017 01 23.85354 10 18 22.47 +62 52 50.1                qEB051246
     K17B03M  C2017 01 23.85486 10 18 21.46 +62 52 50.3                qEB051246
     K17B03M  C2017 01 23.85539 10 18 21.15 +62 52 51.1                qEB051246
     K17B03M  C2017 01 23.85584 10 18 20.86 +62 52 51.7                qEB051246
     K17B03M KC2017 01 23.85788 10 18 20.65 +62 52 55.3                tEB051104
     K17B03M KC2017 01 23.86149 10 18 18.36 +62 52 59.7          19.0  tEB051104
     K17B03M  C2017 01 23.86299 10 17 59.74 +62 53 47.4          20.0 RqEB051D29
     K17B03M  C2017 01 23.87972 10 17 48.48 +62 53 59.5          19.6 RqEB051D29
     K17B03M KC2017 01 23.88163 10 18 05.41 +62 53 24.4          19.0 RtEB051K38
     K17B03M KC2017 01 23.90370 10 17 51.16 +62 53 54.3          18.8 RtEB051K38
     K17B03M KC2017 01 23.91006 10 17 48.12 +62 53 55.5          18.9 VqEB051I93
     K17B03M KC2017 01 23.91616 10 17 44.16 +62 54 03.9          19.0 VqEB051I93
     K17B03M KC2017 01 23.92281 10 17 39.84 +62 54 13.0          19.1 VqEB051I93
     K17B03M KC2017 01 23.92800 10 17 34.73 +62 54 30.0          19.3 VSEB051595
     K17B03M KC2017 01 23.93114 10 17 33.19 +62 54 30.3          18.7 RtEB051K38
     K17B03M KC2017 01 23.94113 10 17 25.99 +62 54 46.5          19.2 VSEB051595
     K17B03M KC2017 01 23.95408 10 17 17.89 +62 54 59.4          19.0 RtEB051K38
     K17B03M KC2017 01 23.95425 10 17 17.22 +62 55 02.5                SEB051595
 
Observer details:
104 San Marcello Pistoiese.  Observers P. Bacci, M. Maestripieri.  Measurers
    P. Bacci, L. Tesi, G. Fagioli.  0.60-m f/4 reflector + CCD.
246 Klet Observatory-KLENOT.  Observers M. Tichy, J. Ticha.  Measurer M. Tichy.
    1.06-m KLENOT Telescope + CCD.
595 Farra d'Isonzo.  Observer E. Pettarin.  0.61-m f/4.0 reflector + CCD.
926 Tenagra II Observatory.  Observers M. Schwartz, P. R. Holvorcem.  Measurer
    M. Schwartz.  0.81-m f/7 Ritchey-Chretien + CCD.
958 Observatoire de Dax.  Observers P. Dupouy, J. B. de Vanssay.  Measurer
    P. Dupouy.  0.43-m f/2.7 reflector + CCD.
C42 Xingming Observatory, Mt. Nanshan.  Observers H. Tan, X. Gao.  Measurer
    H. Tan.  0.5-m f/4 reflector + CCD.
D29 Purple Mountain Observatory, XuYi Station.  Observers H. B. Zhao, B. Li,
    G. Zhaori, R. Q. Hong, L. F. Hu.  Measurers H. B. Zhao, B. Li. H. Lu,
    G. Zhaori.  1.04-m f/1.8 Schmidt + CCD.
F51 Pan-STARRS 1, Haleakala.  Observers B. Gibson, T. Goggia, S. Kahale,
    T. Lowe, A. Schultz, M. Willman.  Measurers K. Chambers, S. Chastel,
    L. Denneau, H. Flewelling, M. Huber, E. Lilly, E. Magnier, R. Wainscoat,
    C. Waters, R. Weryk.  1.8-m Ritchey-Chretien + CCD.
I93 St Pardon de Conques.  Observer F. Losse.  0.40-m f/3.7 reflector + CCD.
K38 M57 Observatory, Saltrio.  Observer G. Baj.  0.30-m f/8 Ritchey-Chretien
    + CCD.
K88 GINOP-KHK, Piszkesteto.  Observer K. Sarneczky.  0.60-m Schmidt + CCD.
L04 ROASTERR-1 Observatory, Cluj-Napoca.  Observer L. Hudin.  0.3-m f/5.0
    reflector + CCD.
 
Orbital elements:
2017 BM3                                                 Earth MOID = 0.0093 AU
Epoch 2017 Feb. 16.0 TT = JDT 2457800.5                 MPC
M 281.17804              (2000.0)            P               Q
n   1.01603452     Peri.  286.11067     -0.41050219     +0.89811935
a   0.9799346      Node   318.49831     -0.71893981     -0.42515806
e   0.1778367      Incl.   13.76783     -0.56090418     -0.11234878
P   0.97           H   22.8           G   0.15           U   7
Residuals in seconds of arc
170114 F51  0.0   0.0     170123 926  0.0   0.4+    170123 246  0.0   0.1+
170114 F51  0.0   0.0     170123 926  0.1-  0.3+    170123 104  0.2+  0.1-
170114 F51  0.0   0.0     170123 926  0.1-  0.1+    170123 104  0.1+  0.7-
170122 D29  0.1-  0.1+    170123 C42 (0.9-  2.8-)   170123 D29  0.5+  0.1-
170122 D29  0.3+  0.3+    170123 C42  0.2-  0.3-    170123 D29  0.3+  0.5+
170122 D29  0.6+  0.0     170123 C42  0.2-  0.2-    170123 K38  0.3-  0.0
170123 K88  0.4+  0.3+    170123 C42 (2.0+  1.0-)   170123 K38  0.6-  0.0
170123 K88  0.4+  0.2+    170123 D29  0.1-  0.2+    170123 I93  0.2+  0.0
170123 K88  0.3+  0.2+    170123 246  0.0   0.1+    170123 I93  0.1+  0.1+
170123 958  1.0-  0.6-    170123 246  0.4+  0.1+    170123 I93  0.0   0.2+
170123 L04  0.2+  0.1-    170123 246  0.0   0.9-    170123 595  0.4+  0.2+
170123 958  0.3-  0.0     170123 104 (0.3-  1.6+)   170123 K38  0.6-  0.2-
170123 L04  0.0   0.1+    170123 246 (1.1+  1.6+)   170123 595  0.4+  0.1+
170123 958  0.5-  0.2+    170123 246  0.1-  0.0     170123 K38  1.0-  0.3-
170123 L04  0.1-  0.2-    170123 246  0.1+  0.1+    170123 595  0.5+  0.1-

Ephemeris:
2017 BM3                 a,e,i = 0.98, 0.18, 14                  q = 0.8057
Date    TT    R. A. (2000) Decl.     Delta      r     Elong.  Phase     V
2016 12 25    11 15 25.9 +55 44 37   0.2352  1.1116   117.4    51.8    21.8
...
2017 01 09    11 20 07.9 +58 28 12   0.1594  1.0814   124.4    48.6    20.8
...
2017 01 17    11 02 47.0 +60 41 29   0.1196  1.0623   128.5    46.4    20.1
...
2017 01 23    10 26 23.4 +62 38 04   0.09060 1.0469   131.8    44.5    19.4
2017 01 24    10 16 43.4 +62 55 28   0.08589 1.0442   132.3    44.2    19.3
2017 01 25    10 05 35.7 +63 10 36   0.08123 1.0415   132.9    43.9    19.1
...
2017 01 31    08 17 21.2 +62 01 53   0.05493 1.0248   135.0    42.9    18.2
...
2017 02 08    04 54 43.3 +30 03 29   0.03266 1.0014   116.4    61.9    17.6
...
2017 02 23    02 29 32.6 -35 41 32   0.07539 0.9551    60.9   115.1    21.6

A. U. Tomatic                (C) Copyright 2017 MPC           M.P.E.C. 2017-B51




More information about the Iaude mailing list